15min,AgWx,beryljct,423,18MAR2020:00:00:00,37.2,12.88,35.7,35.5,35.5,35.7,35.3,93,94,92,0.646,33.8,34.1,33.4,13.53,9.7,181,13,20.3,-0.00004,-0.00004,43.1,43.5,23,0,.,.,10.41,0.03,0.02
15min,AgWx,beryljct,423,18MAR2020:00:15:00,37.0,12.87,35.6,35.2,35.3,35.6,35.2,92,93,92,0.648,33.3,33.5,33.2,11.77,9.5,192,10,15.7,-0.00004,-0.00003,43.0,43.4,23,0,.,.,10.42,0.02,0.02
15min,AgWx,beryljct,423,18MAR2020:00:30:00,36.9,12.85,34.6,34.6,35.1,35.6,34.6,93,94,93,0.630,33.4,33.9,32.8,5.809,7.8,172,15,13.6,-0.00005,-0.00006,42.9,43.4,23,0,.,.,10.42,0.00,0.00
15min,AgWx,beryljct,423,18MAR2020:00:45:00,36.2,12.86,33.7,33.6,34.0,34.6,33.6,94,95,93,0.612,32.5,32.8,32.1,4.341,5.9,136,11,8.1,-0.00008,-0.00008,42.8,43.4,23,0,.,.,10.42,0.00,0.00
15min,AgWx,beryljct,423,18MAR2020:01:00:00,35.4,12.85,33.7,33.6,33.6,33.8,33.5,95,95,94,0.615,32.2,32.4,32.0,6.423,6.4,112,9.0,10.2,-0.00007,-0.00008,42.7,43.3,23,0,.,.,10.42,0.00,0.00
15min,AgWx,beryljct,423,18MAR2020:01:15:00,34.9,12.83,33.5,33.2,33.5,33.7,33.1,94,95,94,0.602,32.0,32.3,31.5,2.762,3.8,167,36,7.5,-0.00011,-0.00013,42.6,43.3,23,0,.,.,10.43,0.01,0.00
15min,AgWx,beryljct,423,18MAR2020:01:30:00,34.4,12.83,34.0,33.6,33.4,33.6,33.3,94,94,93,0.605,31.8,32.0,31.7,3.288,2.3,218,13,4.5,-0.00014,-0.00018,42.4,43.3,23,0,.,.,10.42,0.00,0.00
15min,AgWx,beryljct,423,18MAR2020:01:45:00,34.4,12.82,34.9,34.7,34.4,34.9,33.4,92,93,90,0.616,32.3,32.7,31.6,5.656,6.6,192,16,9.5,-0.00006,-0.00006,42.3,43.3,23,0,.,.,10.42,0.00,0.01
15min,AgWx,beryljct,423,18MAR2020:02:00:00,35.0,12.81,36.2,35.7,35.2,35.7,34.6,89,91,87,0.618,32.3,32.5,32.1,10.92,7.8,197,8.4,11.4,-0.00003,-0.00003,42.2,43.3,23,0,.,.,10.43,0.01,0.00
15min,AgWx,beryljct,423,18MAR2020:02:15:00,35.3,12.81,35.3,35.1,35.4,35.8,35.1,88,90,87,0.618,32.3,32.5,32.1,7.453,9.5,180,7.9,15.0,-0.00001,-0.00000,42.1,43.2,23,0,.,.,10.43,0.00,0.00
15min,AgWx,beryljct,423,18MAR2020:02:30:00,35.3,12.8,34.6,34.5,34.8,35.1,34.4,90,91,90,0.616,32.3,32.5,32.1,4.319,5.8,183,12,8.5,-0.00006,-0.00007,42.0,43.2,23,0,.,.,10.43,0.00,0.00
15min,AgWx,beryljct,423,18MAR2020:02:45:00,35.2,12.8,35.1,34.5,34.3,34.6,34.2,92,93,91,0.628,32.3,32.7,32.2,6.138,4.0,190,14,6.3,-0.00010,-0.00012,41.8,43.1,23,0,.,.,10.43,0.01,0.00
15min,AgWx,beryljct,423,18MAR2020:03:00:00,35.2,12.78,35.8,35.4,34.9,35.4,34.5,92,93,90,0.632,32.8,33.0,32.6,8.72,7.0,179,8.1,10.0,-0.00006,-0.00006,41.7,43.1,23,0,.,.,10.43,0.00,0.00
15min,AgWx,beryljct,423,18MAR2020:03:15:00,35.6,12.78,35.3,35.2,35.4,35.6,35.2,89,90,89,0.621,32.6,32.8,32.4,6.949,8.6,175,8.9,12.5,-0.00002,-0.00002,41.6,43.1,23,0,.,.,10.43,0.00,0.00
15min,AgWx,beryljct,423,18MAR2020:03:30:00,35.7,12.77,34.7,34.3,34.6,35.3,34.3,91,93,90,0.620,32.3,32.5,32.2,7.804,6.9,168,8.5,10.5,-0.00005,-0.00005,41.5,43.0,23,0,.,.,10.43,0.00,0.00
15min,AgWx,beryljct,423,18MAR2020:03:45:00,35.6,12.77,34.1,34.1,34.2,34.4,34.0,93,94,93,0.621,32.4,32.6,32.2,3.179,3.6,185,19,7.1,-0.00011,-0.00013,41.4,43.0,23,0,.,.,10.43,0.00,0.00
15min,AgWx,beryljct,423,18MAR2020:04:00:00,35.4,12.75,34.5,34.1,34.1,34.3,34.0,94,94,93,0.620,32.5,32.7,32.3,2.499,3.5,128,11,4.8,-0.00011,-0.00013,41.3,43.0,23,0,.,.,10.43,0.00,0.00
15min,AgWx,beryljct,423,18MAR2020:04:15:00,35.4,12.76,35.4,35.1,34.5,35.1,34.0,93,94,92,0.637,32.7,33.0,32.3,8.05,5.5,155,23,8.4,-0.00008,-0.00009,41.2,42.9,23,0,.,.,10.43,0.00,0.00
15min,AgWx,beryljct,423,18MAR2020:04:30:00,35.6,12.76,32.8,32.7,34.3,35.2,32.7,91,93,91,0.582,32.1,33.0,30.8,12.12,11.2,185,10,16.5,-0.00002,-0.00001,41.1,42.9,23,0,.,.,10.44,0.01,0.01
15min,AgWx,beryljct,423,18MAR2020:04:45:00,35.1,12.75,32.9,32.5,32.5,32.7,32.4,95,96,93,0.599,31.2,31.5,30.8,7.936,8.2,184,8.5,11.8,-0.00006,-0.00006,41.0,42.9,23,0,.,.,10.44,0.01,0.00
15min,AgWx,beryljct,423,18MAR2020:05:00:00,34.7,12.75,33.0,32.7,32.6,32.7,32.5,96,96,96,0.603,31.6,31.8,31.5,4.823,5.6,165,12,9.0,-0.00009,-0.00010,40.9,42.8,23,0,.,.,10.44,0.00,0.00
15min,AgWx,beryljct,423,18MAR2020:05:15:00,34.5,12.74,32.7,32.4,32.6,32.7,32.4,96,96,96,0.599,31.6,31.7,31.5,2.521,4.8,154,7.8,7.3,-0.00010,-0.00011,40.9,42.8,23,0,.,.,10.45,0.00,0.00
15min,AgWx,beryljct,423,18MAR2020:05:30:00,34.1,12.74,32.7,32.3,32.4,32.6,32.3,97,97,96,0.599,31.5,31.7,31.5,2.565,2.2,165,7.9,3.2,-0.00015,-0.00019,40.8,42.7,23,0,.,.,10.44,0.00,0.00
15min,AgWx,beryljct,423,18MAR2020:05:45:00,33.9,12.72,32.8,32.4,32.4,32.4,32.3,97,97,97,0.600,31.6,31.7,31.4,4.253,3.8,156,6.4,5.3,-0.00012,-0.00014,40.7,42.7,23,0,.,.,10.44,0.00,0.00
15min,AgWx,beryljct,423,18MAR2020:06:00:00,33.6,12.72,32.8,32.3,32.3,32.5,32.2,96,97,96,0.592,31.4,31.6,31.1,3.157,3.4,180,12,4.9,0.00002,0.00004,40.6,42.6,23,0,.,.,10.44,0.00,0.00
15min,AgWx,beryljct,423,18MAR2020:06:15:00,33.3,12.73,32.7,32.5,32.3,32.5,32.2,95,96,95,0.592,31.1,31.4,30.8,2.784,2.6,189,9.4,3.7,0.00003,0.00004,40.6,42.6,23,0,.,.,10.44,0.00,0.00
15min,AgWx,beryljct,423,18MAR2020:06:30:00,33.2,12.72,33.0,32.6,32.5,32.6,32.4,94,95,94,0.586,31.0,31.1,30.9,3.113,2.9,201,19,3.8,0.00003,0.00005,40.5,42.6,23,0,.,.,10.44,0.00,0.00
15min,AgWx,beryljct,423,18MAR2020:06:45:00,33.2,12.72,32.9,32.5,32.5,32.7,32.3,94,94,93,0.587,30.9,31.1,30.6,4.319,3.4,171,6.5,4.4,0.00004,0.00007,40.4,42.5,23,2,.,.,10.45,0.00,0.00
15min,AgWx,beryljct,423,18MAR2020:07:00:00,33.4,12.72,33.3,32.9,32.8,33.0,32.5,94,95,93,0.591,31.3,31.5,31.0,4.538,4.7,197,6.3,5.8,0.00006,0.00009,40.3,42.5,23,4,.,.,10.44,0.00,0.00
15min,AgWx,beryljct,423,18MAR2020:07:15:00,33.6,12.72,33.3,32.9,32.9,33.0,32.8,93,94,93,0.589,31.1,31.3,31.1,3.201,4.0,210,9.6,4.8,0.00011,0.00014,40.3,42.5,23,16,.,.,10.44,0.00,0.00
15min,AgWx,beryljct,423,18MAR2020:07:30:00,33.7,12.74,33.4,33.1,33.0,33.2,32.9,93,93,92,0.588,31.1,31.3,31.0,2.674,2.9,201,4.2,4.1,0.00016,0.00020,40.2,42.4,23,32,.,.,10.44,0.00,0.00
15min,AgWx,beryljct,423,18MAR2020:07:45:00,34.1,12.73,34.3,33.7,33.4,33.7,33.1,91,92,90,0.588,31.1,31.3,30.9,3.157,2.4,223,9.6,3.2,0.00046,0.00052,40.1,42.4,23,116,.,.,10.45,0.01,0.01
15min,AgWx,beryljct,423,18MAR2020:08:00:00,34.2,12.76,34.2,33.8,33.7,34.0,33.6,89,90,89,0.592,30.9,31.3,30.7,1.995,2.4,208,13,3.4,0.00055,0.00061,40.1,42.3,23,135,.,.,10.45,0.00,0.00
15min,AgWx,beryljct,423,18MAR2020:08:15:00,34.7,12.76,33.8,33.7,33.9,34.1,33.7,90,90,90,0.588,31.3,31.4,31.0,3.266,2.3,166,11,3.3,0.00059,0.00066,40.0,42.3,23,142,.,.,10.45,0.00,0.01
15min,AgWx,beryljct,423,18MAR2020:08:30:00,35.1,12.97,35.3,34.7,34.0,34.8,33.6,90,91,90,0.612,31.5,32.1,31.1,2.368,2.7,158,8.5,3.9,0.00090,0.00099,40.0,42.2,23,245,.,.,10.45,0.00,0.00
15min,AgWx,beryljct,423,18MAR2020:08:45:00,36.2,13.2,35.7,35.9,35.4,36.0,34.7,88,90,87,0.625,32.2,33.1,31.9,4.45,4.1,151,10,6.3,0.00109,0.00121,39.9,42.2,23,294,.,.,10.45,0.00,0.00
15min,AgWx,beryljct,423,18MAR2020:09:00:00,37.3,13.47,37.1,36.8,36.4,37.1,35.8,85,88,80,0.591,32.4,33.6,31.2,7.059,5.5,158,14,9.3,0.00109,0.00124,39.9,42.2,23,282,.,.,10.44,0.00,0.00
15min,AgWx,beryljct,423,18MAR2020:09:15:00,38.0,13.56,37.8,37.3,37.1,37.3,36.8,79,81,78,0.586,31.3,31.8,30.9,8.13,7.7,162,12,10.1,0.00101,0.00124,39.8,42.1,23,236,.,.,10.44,0.00,0.00
15min,AgWx,beryljct,423,18MAR2020:09:30:00,38.7,13.67,38.0,37.7,37.3,37.7,37.1,77,78,75,0.593,30.6,31.3,30.0,5.656,7.8,160,9.3,10.4,0.00112,0.00137,39.8,42.1,23,256,.,.,10.44,0.00,0.00
15min,AgWx,beryljct,423,18MAR2020:09:45:00,39.4,13.83,37.9,37.7,37.7,38.3,37.5,77,80,75,0.581,31.3,32.5,30.4,6.971,7.7,171,9.5,10.9,0.00113,0.00138,39.8,42.1,23,256,.,.,10.44,0.00,0.00
15min,AgWx,beryljct,423,18MAR2020:10:00:00,40.3,14.64,39.8,38.4,38.1,38.5,37.7,76,79,74,0.593,31.3,32.5,30.5,7.168,6.9,156,21,11.1,0.00145,0.00172,39.9,42.0,23,352,.,.,10.44,0.00,0.00
15min,AgWx,beryljct,423,18MAR2020:10:15:00,41.1,14.59,38.8,38.1,38.3,39.1,37.8,75,78,74,0.573,31.1,32.9,30.3,6.774,7.5,159,13,11.7,0.00136,0.00164,40.0,42.0,23,316,.,.,10.44,0.00,0.00
15min,AgWx,beryljct,423,18MAR2020:10:30:00,41.8,14.59,39.6,38.3,38.3,38.7,38.0,75,77,72,0.568,31.0,31.8,30.1,3.88,6.7,162,18,9.0,0.00150,0.00178,40.1,42.0,23,353,.,.,10.45,0.00,0.00
15min,AgWx,beryljct,423,18MAR2020:10:45:00,42.3,13.64,39.1,38.6,38.7,39.0,38.3,74,76,73,0.594,31.1,32.0,30.4,4.669,5.1,191,27,9.3,0.00128,0.00152,40.2,41.9,23,273,.,.,10.44,0.00,0.00
15min,AgWx,beryljct,423,18MAR2020:11:00:00,42.3,14.59,38.3,38.0,38.4,38.9,38.0,74,76,73,0.570,31.0,31.8,30.3,2.214,5.5,203,22,9.0,0.00113,0.00137,40.3,41.9,23,232,.,.,10.44,0.00,0.00
15min,AgWx,beryljct,423,18MAR2020:11:15:00,42.2,14.58,40.0,39.1,38.4,39.1,38.0,75,78,74,0.633,31.2,32.9,30.4,5.678,3.8,213,21,6.7,0.00154,0.00175,40.5,41.9,23,347,.,.,10.44,0.00,0.00
15min,AgWx,beryljct,423,18MAR2020:11:30:00,42.7,13.59,39.0,38.7,38.9,39.5,38.4,76,79,74,0.600,32.0,33.1,30.9,6.489,5.7,232,19,9.1,0.00144,0.00169,40.7,41.9,23,320,.,.,10.44,0.00,0.00
15min,AgWx,beryljct,423,18MAR2020:11:45:00,42.6,14.62,38.6,38.8,38.8,39.0,38.6,75,77,74,0.613,31.7,32.4,31.0,7.147,6.6,213,9.8,9.5,0.00114,0.00139,40.8,41.8,23,235,.,.,10.44,0.00,0.00
15min,AgWx,beryljct,423,18MAR2020:12:00:00,42.2,14.58,39.7,39.0,38.9,39.5,38.7,76,78,73,0.618,31.9,33.2,30.9,5.744,7.5,212,15,10.9,0.00157,0.00186,41.0,41.8,23,369,.,.,10.44,0.00,0.00
15min,AgWx,beryljct,423,18MAR2020:12:15:00,42.1,14.58,39.4,39.0,38.8,39.2,38.5,77,78,75,0.616,32.1,33.0,31.5,4.998,6.5,214,10,9.9,0.00099,0.00122,41.2,41.8,23,192,.,.,10.44,0.00,0.00
15min,AgWx,beryljct,423,18MAR2020:12:30:00,42.0,14.59,38.9,39.4,39.0,39.6,38.7,77,79,75,0.643,32.4,33.6,31.6,5.261,5.5,197,13,8.0,0.00133,0.00156,41.4,41.8,23,293,.,.,10.44,0.00,0.00
15min,AgWx,beryljct,423,18MAR2020:12:45:00,42.5,14.55,40.2,39.3,39.5,40.0,39.3,76,78,72,0.618,32.4,33.3,31.3,5.393,5.5,165,22,7.6,0.00139,0.00164,41.5,41.8,23,304,.,.,10.44,0.00,0.00
15min,AgWx,beryljct,423,18MAR2020:13:00:00,42.9,14.42,40.0,39.7,39.6,40.2,39.1,73,76,70,0.579,31.6,32.5,30.7,0.767,4.0,165,24,6.5,0.00116,0.00137,41.7,41.8,23,226,.,.,10.43,0.00,0.00
15min,AgWx,beryljct,423,18MAR2020:13:15:00,43.4,14.56,41.0,40.6,40.1,40.9,39.5,72,75,69,0.603,31.8,33.4,30.7,1.776,2.2,166,38,7.0,0.00124,0.00141,41.8,41.8,23,249,.,.,10.44,0.00,0.00
15min,AgWx,beryljct,423,18MAR2020:13:30:00,43.8,14.15,39.7,40.0,40.6,41.1,40.0,72,74,69,0.617,32.3,33.6,31.1,9.34,6.6,198,20,11.2,0.00108,0.00135,42.0,41.8,23,193,.,.,10.43,0.00,0.00
15min,AgWx,beryljct,423,18MAR2020:13:45:00,43.2,14.19,39.3,39.4,39.7,40.1,39.3,77,80,73,0.647,33.0,34.2,32.1,6.467,6.8,192,17,9.9,0.00106,0.00131,42.1,41.8,23,213,.,.,10.44,0.00,0.00
15min,AgWx,beryljct,423,18MAR2020:14:00:00,42.3,14.2,38.8,39.1,39.0,39.4,38.6,80,82,78,0.659,33.5,34.1,33.0,9.05,7.2,223,17,9.4,0.00111,0.00133,42.2,41.8,23,253,.,.,10.44,0.00,0.00
15min,AgWx,beryljct,423,18MAR2020:14:15:00,42.0,14.18,38.5,38.6,38.6,39.1,38.2,83,84,81,0.645,33.8,34.3,33.0,2.828,5.1,231,16,8.8,0.00162,0.00182,42.3,41.9,23,414,.,.,10.43,0.00,0.00
15min,AgWx,beryljct,423,18MAR2020:14:30:00,42.2,14.2,40.6,39.3,39.0,39.4,38.4,81,82,79,0.657,33.6,34.4,32.8,4.165,3.6,165,18,7.3,0.00132,0.00149,42.4,41.9,23,308,.,.,10.44,0.00,0.00
15min,AgWx,beryljct,423,18MAR2020:14:45:00,42.0,14.19,39.6,39.1,38.9,39.5,38.4,79,82,77,0.647,32.9,34.4,31.8,1.995,5.2,153,12,8.4,0.00092,0.00111,42.6,41.9,23,191,.,.,10.43,0.00,0.00
15min,AgWx,beryljct,423,18MAR2020:15:00:00,41.8,14.03,39.2,39.4,39.0,39.5,38.7,79,81,78,0.662,33.2,34.2,32.7,2.85,2.0,183,29,4.5,0.00095,0.00107,42.7,42.0,23,206,.,.,10.44,0.00,0.00
15min,AgWx,beryljct,423,18MAR2020:15:15:00,41.8,13.49,38.6,39.0,39.3,39.7,38.9,81,83,79,0.667,34.0,35.0,33.0,3.99,2.2,201,20,5.8,0.00061,0.00071,42.8,42.0,23,113,.,.,10.44,0.00,0.00
15min,AgWx,beryljct,423,18MAR2020:15:30:00,41.4,13.29,38.4,38.3,38.8,39.1,38.3,84,87,82,0.680,34.3,35.1,33.6,7.695,3.6,259,29,10.4,0.00053,0.00064,42.9,42.0,23,98,.,.,10.44,0.01,0.00
15min,AgWx,beryljct,423,18MAR2020:15:45:00,40.7,13.36,37.5,37.2,37.8,38.3,37.1,86,87,85,0.656,34.0,34.7,33.7,4.077,6.8,240,14,10.1,0.00054,0.00068,43.0,42.0,23,111,.,.,10.45,0.00,0.01
15min,AgWx,beryljct,423,18MAR2020:16:00:00,40.2,14.22,38.0,37.8,37.6,38.0,37.2,88,89,87,0.680,34.2,34.9,33.9,5.941,6.4,227,9.1,8.6,0.00060,0.00072,43.1,42.0,23,153,.,.,10.45,0.00,0.00
15min,AgWx,beryljct,423,18MAR2020:16:15:00,40.1,14.18,38.0,38.0,37.9,38.3,37.7,87,89,83,0.640,34.4,35.2,33.1,2.631,5.6,257,12,9.0,0.00064,0.00077,43.2,42.1,23,190,.,.,10.45,0.00,0.00
15min,AgWx,beryljct,423,18MAR2020:16:30:00,40.2,13.71,39.0,38.1,38.3,39.0,37.9,83,85,81,0.650,33.6,34.8,32.5,4.998,3.4,206,37,7.9,0.00057,0.00068,43.2,42.1,23,176,.,.,10.45,0.00,0.00
15min,AgWx,beryljct,423,18MAR2020:16:45:00,40.4,13.88,39.0,38.3,38.3,38.4,38.1,82,84,80,0.627,33.2,33.9,32.6,0.307,2.4,154,21,5.2,0.00041,0.00050,43.3,42.1,23,164,.,.,10.45,0.00,0.00
15min,AgWx,beryljct,423,18MAR2020:17:00:00,40.7,13.22,38.6,38.4,38.4,38.7,38.2,81,82,80,0.636,33.0,33.7,32.6,0.526,1.1,99,6.7,2.4,0.00017,0.00022,43.3,42.2,23,125,.,.,10.45,0.00,0.00
15min,AgWx,beryljct,423,18MAR2020:17:15:00,40.8,13.22,38.9,38.7,38.6,38.8,38.3,79,81,77,0.612,32.6,33.3,32.0,0.066,0.5,260,50,2.0,-0.00009,-0.00007,43.3,42.2,23,71,.,.,10.45,0.00,0.00
15min,AgWx,beryljct,423,18MAR2020:17:30:00,40.8,13.17,38.8,38.7,38.8,39.1,38.5,79,81,77,0.643,32.9,33.4,32.1,1.973,2.0,144,30,3.7,-0.00007,-0.00002,43.4,42.2,23,67,.,.,10.45,0.00,0.00
15min,AgWx,beryljct,423,18MAR2020:17:45:00,40.5,13.11,38.6,38.4,38.5,38.7,38.4,81,83,80,0.646,33.3,33.9,32.9,2.126,2.7,140,23,4.9,-0.00022,-0.00017,43.4,42.3,23,27,.,.,10.46,0.01,0.00
15min,AgWx,beryljct,423,18MAR2020:18:00:00,40.1,13.07,38.1,37.9,38.0,38.4,37.8,84,84,82,0.645,33.5,33.7,33.2,0,1.1,121,2.7,4.0,0.00008,0.00011,43.4,42.3,23,24,.,.,10.46,0.00,0.00
15min,AgWx,beryljct,423,18MAR2020:18:15:00,39.7,13.04,37.4,37.4,37.7,38.0,37.4,86,88,84,0.668,33.7,34.4,33.3,6.467,2.5,324,27,7.0,0.00006,0.00009,43.4,42.3,23,10,.,.,10.46,0.00,0.00
15min,AgWx,beryljct,423,18MAR2020:18:30:00,38.8,13.01,35.0,34.9,35.9,37.3,34.8,90,92,88,0.631,33.1,34.2,32.6,8.79,7.5,317,14,10.0,0.00007,0.00008,43.4,42.4,23,8,.,.,10.48,0.02,0.02
15min,AgWx,beryljct,423,18MAR2020:18:45:00,38.0,12.99,34.5,34.3,34.5,34.9,34.3,93,94,92,0.631,32.7,32.9,32.5,6.752,8.1,313,7.2,11.1,0.00004,0.00005,43.4,42.4,23,5,.,.,10.48,0.00,0.00
15min,AgWx,beryljct,423,18MAR2020:19:00:00,37.4,12.97,34.5,34.2,34.3,34.4,34.2,95,96,94,0.637,33.0,33.3,32.7,6.752,6.3,310,15,7.7,0.00002,0.00003,43.4,42.4,23,1,.,.,10.49,0.01,0.01
15min,AgWx,beryljct,423,18MAR2020:19:15:00,36.9,12.97,34.5,34.2,34.2,34.4,34.2,96,96,95,0.637,33.1,33.3,33.0,5.963,5.3,307,14,7.1,0.00002,0.00002,43.3,42.5,23,0,.,.,10.49,0.00,0.00
15min,AgWx,beryljct,423,18MAR2020:19:30:00,36.6,12.96,34.2,34.0,34.1,34.3,34.0,96,96,95,0.633,33.0,33.1,32.8,6.489,6.0,311,8.1,7.7,0.00002,0.00002,43.2,42.5,23,0,.,.,10.49,0.00,0.00
15min,AgWx,beryljct,423,18MAR2020:19:45:00,36.4,12.94,34.3,34.0,34.1,34.2,34.0,96,96,96,0.633,33.0,33.2,32.8,4.735,5.2,325,7.9,6.6,0.00002,0.00002,43.1,42.5,23,0,.,.,10.49,0.00,0.01
15min,AgWx,beryljct,423,18MAR2020:20:00:00,36.2,12.95,34.2,33.7,33.9,34.0,33.7,96,96,96,0.630,32.9,33.1,32.8,3.99,4.5,316,9.4,5.7,0.00001,0.00002,43.0,42.6,23,0,.,.,10.49,0.00,0.00
15min,AgWx,beryljct,423,18MAR2020:20:15:00,36.0,12.94,33.3,33.2,33.6,33.9,33.1,96,97,96,0.618,32.7,33.0,32.2,3.683,4.3,345,15,5.4,0.00001,0.00002,42.9,42.6,23,0,.,.,10.50,0.01,0.00
15min,AgWx,beryljct,423,18MAR2020:20:30:00,35.5,12.91,32.8,32.4,32.7,33.1,32.4,97,97,96,0.604,31.9,32.3,31.7,1.688,2.9,345,15,3.9,0.00001,0.00001,42.8,42.6,23,0,.,.,10.50,0.01,0.01
15min,AgWx,beryljct,423,18MAR2020:20:45:00,35.2,12.92,32.3,32.0,32.2,32.6,32.0,97,98,97,0.597,31.6,31.9,31.4,1.71,1.5,355,13,2.0,-0.00000,-0.00000,42.7,42.6,23,0,.,.,10.52,0.01,0.00
15min,AgWx,beryljct,423,18MAR2020:21:00:00,34.9,12.91,32.3,31.9,32.0,32.1,31.9,98,98,98,0.598,31.5,31.6,31.5,0.745,1.2,10,4.6,2.6,-0.00000,-0.00000,42.6,42.6,23,0,.,.,10.53,0.01,0.00
15min,AgWx,beryljct,423,18MAR2020:21:15:00,34.7,12.89,32.3,31.9,31.9,32.0,31.9,98,99,98,0.599,31.5,31.6,31.4,2.258,0.8,45,21,2.5,-0.00000,-0.00001,42.4,42.6,23,0,.,.,10.53,0.00,0.00
15min,AgWx,beryljct,423,18MAR2020:21:30:00,34.5,12.89,32.3,31.9,31.9,32.0,31.9,99,99,98,0.600,31.5,31.7,31.5,0,1.7,117,17,2.9,-0.00000,-0.00000,42.3,42.6,23,0,.,.,10.53,0.00,0.00
15min,AgWx,beryljct,423,18MAR2020:21:45:00,34.4,12.89,32.3,32.0,31.9,32.0,31.9,99,99,99,0.603,31.6,31.7,31.5,0.417,1.0,131,7.1,2.2,-0.00000,-0.00001,42.2,42.6,23,0,.,.,10.53,0.00,0.00
15min,AgWx,beryljct,423,18MAR2020:22:00:00,34.3,12.88,32.3,32.0,32.0,32.1,32.0,99,99,99,0.605,31.7,31.8,31.7,0.132,0.2,142,0.0,1.2,-0.00001,-0.00001,42.1,42.6,23,0,.,.,10.53,0.00,0.00
15min,AgWx,beryljct,423,18MAR2020:22:15:00,34.4,12.87,32.4,32.0,32.0,32.1,32.0,99,99,99,0.606,31.7,31.8,31.7,2.017,1.8,239,72,3.1,-0.00000,-0.00000,41.9,42.6,23,0,.,.,10.53,0.00,0.00
15min,AgWx,beryljct,423,18MAR2020:22:30:00,34.4,12.86,32.4,32.1,32.1,32.2,32.0,99,99,99,0.607,31.8,32.0,31.8,2.718,1.8,282,6.7,3.1,-0.00000,-0.00000,41.8,42.6,23,0,.,.,10.54,0.00,0.00
15min,AgWx,beryljct,423,18MAR2020:22:45:00,34.4,12.85,32.6,32.2,32.1,32.3,32.1,99,99,99,0.611,31.9,32.1,31.9,2.039,2.2,300,0.2,2.8,-0.00000,-0.00000,41.7,42.6,23,0,.,.,10.53,0.00,0.00
15min,AgWx,bigpiney,439,18MAR2020:00:00:00,27.5,12.76,28.7,28.1,26.4,28.1,25.3,81,85,75,0.393,21.4,21.7,21.1,3.946,3.4,287,17,5.0,-0.00007,-0.00007,31.2,31.6,13,0,0,0.0,5.91,0.00,0.00
15min,AgWx,bigpiney,439,18MAR2020:00:15:00,27.7,12.76,28.2,28.0,27.9,29.3,26.3,75,79,70,0.392,20.9,21.4,20.2,2.828,4.4,241,38,8.2,-0.00003,-0.00002,31.3,31.6,13,0,0,0.0,5.91,0.00,0.00
15min,AgWx,bigpiney,439,18MAR2020:00:30:00,27.8,12.75,25.7,26.6,26.8,28.0,26.2,76,78,74,0.375,20.4,21.2,19.9,3.113,4.0,239,16,6.9,-0.00004,-0.00004,31.3,31.6,13,0,0,0.0,5.91,0.00,0.00
15min,AgWx,bigpiney,439,18MAR2020:00:45:00,28.0,12.75,27.4,27.2,26.9,27.3,25.9,80,81,76,0.408,21.4,22.3,19.7,5.787,4.4,220,17,6.2,-0.00004,-0.00004,31.3,31.6,13,0,0,0.0,5.91,0.00,0.00
15min,AgWx,bigpiney,439,18MAR2020:01:00:00,28.4,12.74,29.8,29.2,28.9,30.4,27.2,76,82,69,0.412,22.4,22.9,21.5,2.083,3.7,211,25,8.2,-0.00005,-0.00005,31.3,31.7,13,0,0,0.0,5.91,0.00,0.00
15min,AgWx,bigpiney,439,18MAR2020:01:15:00,29.0,12.73,26.3,26.4,28.1,30.0,26.4,79,85,72,0.413,22.4,22.8,22.0,3.858,3.0,63,49,5.7,-0.00008,-0.00009,31.3,31.6,13,0,0,0.0,5.91,0.00,0.00
15min,AgWx,bigpiney,439,18MAR2020:01:30:00,29.1,12.72,24.9,24.4,24.8,26.4,24.0,85,87,84,0.381,21.1,22.4,20.4,3.88,3.9,103,34,5.3,-0.00007,-0.00007,31.3,31.6,13,0,0,0.0,5.91,0.00,0.00
15min,AgWx,bigpiney,439,18MAR2020:01:45:00,28.5,12.72,24.3,23.9,24.2,24.7,23.7,84,86,83,0.372,20.2,20.6,19.7,3.003,3.1,104,14,4.1,-0.00008,-0.00009,31.3,31.6,13,0,0,0.0,5.91,0.00,0.00
15min,AgWx,bigpiney,439,18MAR2020:02:00:00,27.5,12.72,24.0,23.7,23.6,23.9,23.1,85,86,84,0.370,19.8,20.1,19.1,2.521,3.5,116,11,4.7,-0.00007,-0.00008,31.3,31.6,13,0,0,0.0,5.91,0.00,0.00
15min,AgWx,bigpiney,439,18MAR2020:02:15:00,26.7,12.71,23.5,23.2,23.3,23.7,23.1,86,86,85,0.365,19.6,19.9,19.4,3.858,3.3,149,17,5.2,-0.00008,-0.00009,31.3,31.6,13,0,0,0.0,5.91,0.00,0.00
15min,AgWx,bigpiney,439,18MAR2020:02:30:00,25.9,12.7,23.5,23.4,22.7,23.4,21.6,87,89,85,0.366,19.4,19.9,17.9,1.973,3.1,183,21,4.9,-0.00008,-0.00009,31.3,31.6,13,0,0,0.0,5.91,0.00,0.00
15min,AgWx,bigpiney,439,18MAR2020:02:45:00,25.2,12.69,25.2,23.2,22.6,23.7,20.6,85,88,82,0.371,18.7,20.0,16.0,1.6,2.4,201,19,4.5,-0.00009,-0.00011,31.3,31.6,13,0,0,0.0,5.91,0.00,0.00
15min,AgWx,bigpiney,439,18MAR2020:03:00:00,24.6,12.68,22.4,23.0,23.0,24.5,22.0,83,87,78,0.354,18.6,20.3,16.2,3.551,2.8,212,16,3.9,-0.00008,-0.00010,31.2,31.6,13,0,0,0.0,5.91,0.00,0.00
15min,AgWx,bigpiney,439,18MAR2020:03:15:00,24.0,12.68,19.8,20.5,22.8,24.6,20.5,83,86,77,0.294,18.3,20.2,14.6,4.406,3.8,231,11,4.6,-0.00006,-0.00006,31.2,31.6,13,0,0,0.0,5.91,0.00,0.00
15min,AgWx,bigpiney,439,18MAR2020:03:30:00,23.2,12.67,20.3,19.3,18.5,20.4,17.3,85,89,78,0.321,14.6,16.6,13.7,6.84,5.8,228,13,8.2,-0.00003,-0.00002,31.3,31.6,13,0,0,0.0,5.91,0.00,0.00
15min,AgWx,bigpiney,439,18MAR2020:03:45:00,22.7,12.66,23.7,22.5,20.4,22.5,19.4,87,89,86,0.355,17.0,19.0,16.1,8.11,6.4,243,5.2,9.6,-0.00003,-0.00003,31.3,31.6,13,0,0,0.0,5.91,0.00,0.00
15min,AgWx,bigpiney,439,18MAR2020:04:00:00,22.9,12.65,23.8,23.2,22.9,23.5,22.3,85,86,84,0.364,19.1,19.8,18.5,9.91,6.4,243,7.5,9.9,-0.00003,-0.00002,31.3,31.6,13,0,0,0.0,5.91,0.00,0.00
15min,AgWx,bigpiney,439,18MAR2020:04:15:00,23.5,12.64,24.4,23.7,23.9,24.6,23.2,85,86,84,0.370,20.0,20.7,19.5,7.607,7.4,240,12,10.6,-0.00001,-0.00001,31.3,31.6,13,0,0,0.0,5.91,0.00,0.00
15min,AgWx,bigpiney,439,18MAR2020:04:30:00,24.1,12.64,24.8,24.0,24.2,24.8,23.8,84,85,82,0.370,20.0,20.5,19.4,7.234,6.9,234,11,8.2,-0.00002,-0.00001,31.3,31.6,13,0,0,0.0,5.91,0.00,0.00
15min,AgWx,bigpiney,439,18MAR2020:04:45:00,24.7,12.64,23.6,23.5,24.3,25.1,23.5,84,85,82,0.363,20.1,21.0,19.4,6.511,5.6,198,20,12.6,-0.00003,-0.00003,31.3,31.6,13,0,0,0.0,5.91,0.00,0.00
15min,AgWx,bigpiney,439,18MAR2020:05:00:00,25.0,12.63,23.8,23.7,24.4,26.6,23.2,83,85,79,0.363,19.8,22.1,18.8,1.951,2.8,272,66,6.6,-0.00008,-0.00010,31.3,31.5,13,0,0,0.0,5.91,0.00,0.00
15min,AgWx,bigpiney,439,18MAR2020:05:15:00,24.8,12.61,20.4,20.5,22.2,23.7,20.5,85,87,83,0.328,18.4,19.5,17.1,4.45,3.2,6.5,61,5.8,-0.00007,-0.00008,31.3,31.6,13,0,0,0.0,5.91,0.00,0.00
15min,AgWx,bigpiney,439,18MAR2020:05:30:00,24.4,12.62,22.2,22.1,20.8,22.2,20.0,88,89,87,0.353,17.8,19.2,16.9,3.727,3.7,246,21,5.0,-0.00007,-0.00008,31.3,31.6,13,0,0,0.0,5.91,0.00,0.00
15min,AgWx,bigpiney,439,18MAR2020:05:45:00,23.9,12.61,23.2,22.1,21.8,23.7,20.3,86,90,82,0.343,18.2,20.6,16.6,4.757,4.9,251,21,8.9,-0.00005,-0.00005,31.3,31.6,13,0,0,0.0,5.91,0.00,0.00
15min,AgWx,bigpiney,439,18MAR2020:06:00:00,23.6,12.61,20.3,20.1,21.5,22.9,20.0,84,87,82,0.311,17.4,19.4,15.6,2.828,4.1,261,14,5.2,-0.00005,-0.00006,31.3,31.6,13,0,0,0.0,5.91,0.00,0.00
15min,AgWx,bigpiney,439,18MAR2020:06:15:00,23.2,12.6,20.0,20.1,20.1,20.5,19.5,85,87,83,0.321,16.4,16.9,15.4,6.599,6.2,229,11,8.6,-0.00002,-0.00002,31.3,31.6,13,1,0,0.0,5.91,0.00,0.00
15min,AgWx,bigpiney,439,18MAR2020:06:30:00,22.8,12.65,20.5,20.2,19.9,20.4,19.2,86,88,85,0.322,16.5,17.2,15.6,5.239,6.0,225,7.0,7.3,-0.00003,-0.00003,31.3,31.6,13,5,0,0.0,5.91,0.00,0.00
15min,AgWx,bigpiney,439,18MAR2020:06:45:00,22.5,12.78,19.7,20.3,21.1,21.8,20.2,86,87,83,0.318,17.6,18.2,16.4,3.486,2.6,183,76,5.6,-0.00017,-0.00015,31.3,31.6,13,30,0,0.0,5.91,0.00,0.00
15min,AgWx,bigpiney,439,18MAR2020:07:00:00,22.4,13.31,21.4,20.5,20.1,20.7,19.5,86,89,84,0.335,16.6,17.6,15.5,3.793,2.8,242,61,5.2,-0.00005,-0.00002,31.3,31.7,13,66,0,0.0,5.91,0.00,0.00
15min,AgWx,bigpiney,439,18MAR2020:07:15:00,22.5,14.98,20.1,20.7,21.7,22.0,20.5,87,89,85,0.326,18.4,18.9,17.0,3.31,2.9,36,22,4.4,0.00007,0.00011,31.3,31.6,13,106,0,0.0,5.91,0.00,0.00
15min,AgWx,bigpiney,439,18MAR2020:07:30:00,22.9,15.02,22.4,21.5,20.1,21.5,18.9,88,90,85,0.349,17.1,18.7,15.3,0,2.1,316,18,5.5,0.00019,0.00023,31.3,31.6,13,148,0,0.0,5.91,0.00,0.00
15min,AgWx,bigpiney,439,18MAR2020:07:45:00,23.7,14.99,22.5,22.0,21.3,22.0,20.9,88,89,87,0.356,18.2,19.0,17.7,3.617,2.4,190,21,4.4,0.00025,0.00029,31.3,31.6,13,144,0,0.0,5.91,0.00,0.00
15min,AgWx,bigpiney,439,18MAR2020:08:00:00,24.6,14.94,24.1,23.2,22.6,23.2,22.0,88,89,87,0.373,19.5,20.1,19.0,0,2.0,197,11,5.2,0.00028,0.00032,31.3,31.7,13,99,0,0.0,5.91,0.00,0.00
15min,AgWx,bigpiney,439,18MAR2020:08:15:00,25.4,14.91,25.9,25.7,24.7,25.8,23.3,85,88,82,0.389,20.9,21.5,20.2,2.083,1.9,13,50,4.2,0.00040,0.00046,31.3,31.6,13,134,0,0.0,5.91,0.00,0.00
15min,AgWx,bigpiney,439,18MAR2020:08:30:00,26.5,14.92,25.7,25.7,26.0,26.6,25.3,82,83,81,0.386,21.2,21.9,20.5,1.929,1.2,81,67,3.2,0.00038,0.00043,31.3,31.6,13,99,0,0.0,5.91,0.00,0.00
15min,AgWx,bigpiney,439,18MAR2020:08:45:00,27.5,14.87,24.9,24.9,25.2,26.3,24.6,84,86,81,0.393,20.9,21.8,20.3,3.858,2.8,32,17,4.9,0.00054,0.00061,31.3,31.6,13,164,0,0.0,5.91,0.00,0.00
15min,AgWx,bigpiney,439,18MAR2020:09:00:00,28.5,14.83,25.6,25.9,25.2,25.9,24.8,88,89,86,0.416,22.1,22.9,21.3,4.231,3.0,40,11,4.3,0.00088,0.00097,31.3,31.6,13,311,0,0.0,5.91,0.00,0.00
15min,AgWx,bigpiney,439,18MAR2020:09:15:00,30.0,14.81,29.1,27.7,26.5,27.7,25.7,87,88,86,0.451,23.2,24.6,22.3,1.14,3.1,32,15,5.3,0.00126,0.00138,31.3,31.6,13,438,0,0.0,5.91,0.00,0.00